Other Public Products
Issued by NWS Grand Forks, ND

Home | Current Version | Previous Version | Graphics & Text | Print | Product List | Glossary On
Versions: 1 2 3 4 5 6 7 8 9 10 11 12 13 14 15 16 17 18 19 20 21 22 23 24 25 26 27 28 29 30 31 32 33 34 35 36 37 38 39 40 41 42 43 44 45 46 47 48 49 50
209
FPUS83 KFGF 212210
OPUFGF
PRAIRIE TO PINES WEATHER ROUNDUP
NATIONAL WEATHER SERVICE EASTERN NORTH DAKOTA/GRAND FORKS ND
500 PM CDT THU MAY 21 2015

 **SATELLITE DATA USED TO AUGMENT SKY COVER AT AUTOMATED STATIONS**
 *****  WEATHER ACROSS EASTERN NORTH DAKOTA  *****

CITY           SKY/WX    TMP DP  RH WIND       PRES   REMARKS
GRAND FORKS    SUNNY     68  37  32 N9        30.12F
GRAND FORKS AF SUNNY     68  34  28 N14       30.13F
GRAND CITY NWS   N/A     64 N/A N/A N13         N/A
BUXTON         NOT AVBL
DEVILS LAKE    SUNNY     70  32  24 SW6       30.13S
FARGO          SUNNY     70  38  31 NW12      30.11F
WAHPETON ARPT  CLEAR     68  30  24 N16       30.12S
$$

 *****  WEATHER ACROSS CENTRAL AND WESTERN NORTH DAKOTA  *****

CITY           SKY/WX    TMP DP  RH WIND       PRES   REMARKS
JAMESTOWN      SUNNY     70  33  25 CALM      30.12F
BISMARCK       MOSUNNY   75  29  18 N3        30.11F
MINOT          SUNNY     73  32  22 NE5       30.11F
MINOT AFB      SUNNY     75  34  22 N6        30.10F
GARRISON         N/A     74  32  21 S10       30.11F
WILLISTON      SUNNY     75  29  18 VRB5      30.12F
DICKINSON      MOSUNNY   70  31  23 SE8       30.13F
HETTINGER      SUNNY     68  33  27 E14       30.17F
$$

 *****  OTHER OBSERVATIONS NORTHEAST NORTH DAKOTA  *****

CITY           SKY/WX    TMP DP  RH WIND       PRES   REMARKS
WALHALLA       FAIR      66  32  28 NE6       30.14F
LANGDON        FAIR      68  32  26 NE9       30.14F
CAVALIER       FAIR      66  34  30 N9        30.13F
GRAFTON        FAIR      68  37  32 N13       30.14S
CANDO          FAIR      72  30  21 N12       30.14S
FORT TOTTEN      N/A     71  28  20 NW5       29.95S
ROLLA          FAIR      68  28  22 NE6       30.16S
RUGBY          NOT AVBL
 ***** THE ABOVE OBSERVATIONS ARE NON NWS ARE NOT QUALITY
        CONTROLLED AND MAY MIS-REPORT RAIN FOR SNOW...
$$

 *****  OTHER OBSERVATIONS SOUTHEAST NORTH DAKOTA *****

CITY           SKY/WX    TMP DP  RH WIND       PRES   REMARKS
COOPERSTOWN    NOT AVBL
VALLEY CITY    FAIR      70  32  24 N7        30.12F
OAKES            N/A     72  37  28 N9G16     30.12S
GWINNER        NOT AVBL
BUFFALO        NOT AVBL
WYNDMERE         N/A     70  27  19 N8          N/A
 ***** THE ABOVE OBSERVATIONS ARE NON NWS ARE NOT QUALITY
       CONTROLLED AND MAY MIS-REPORT RAIN FOR SNOW...
$$

  *****  WEATHER ACROSS NORTHERN MINNESOTA  *****

CITY           SKY/WX    TMP DP  RH WIND       PRES   REMARKS
FLAG ISLAND    SUNNY     61  32  33 N15       30.09F
WARROAD        SUNNY     61  37  41 E8        30.11F
ROSEAU         SUNNY     68  32  26 NW9       30.09F
HALLOCK        SUNNY     66  30  26 N12       30.12S
THF RVR FALLS  SUNNY     66  32  28 NW10G16   30.11F
HALSTAD        NOT AVBL
FOSSTON        SUNNY     70  32  24 N16G23    30.11S
BAUDETTE       SUNNY     63  31  30 N13       30.10F
WASKISH        SUNNY     64  34  32 N8G20     30.09F
CROOKSTON      SUNNY     68  37  32 NW9       30.12S
$$
  *****  WEATHER ACROSS CENTRAL AND WEST MINNESOTA  *****

CITY           SKY/WX    TMP DP  RH WIND       PRES   REMARKS
BEMIDJI        SUNNY     65  31  27 NW12G18   30.09S
PARK RAPIDS    SUNNY     69  30  23 N7        30.07F
WADENA         SUNNY     68  36  30 N6        30.08S
DETROIT LAKES  SUNNY     68  30  24 N12       30.11F
MOORHEAD       SUNNY     68  37  32 NW16      30.11F
FERGUS FALLS   SUNNY     68  34  28 N13G20    30.11S
ELBOW LAKE     FAIR      67  34  29 NW13G21   30.10F
MORRIS MN      SUNNY     72  30  21 NW13G22   30.09F
STAPLES        SUNNY     68  27  21 N14       30.07F
WHEATON        SUNNY     68  32  26 N12G20    30.12F
$$
  *****  WEATHER ELSEWHERE ACROSS MINNESOTA  *****

CITY           SKY/WX    TMP DP  RH WIND       PRES   REMARKS
DULUTH         SUNNY     68  27  21 NW17G24   30.01S
INTRNTL FALLS  SUNNY     63  29  27 N13       30.07F
ELY            SUNNY     63  25  23 N8        30.02S
CLOQUET        SUNNY     66  23  19 W17       30.02S
BRAINERD       SUNNY     67  32  27 N14       30.07S
HIBBING        SUNNY     67  27  22 N13       30.03S
ALEXANDRIA     SUNNY     68  29  23 N12       30.10F
SAINT CLOUD    SUNNY     71  33  24 NW13      30.05S
MINNEAPOLIS    SUNNY     73  32  22 NW14      30.02S
$$

  *****  WEATHER ACROSS SOUTH DAKOTA  *****

CITY           SKY/WX    TMP DP  RH WIND       PRES   REMARKS
SIOUX FALLS    MOSUNNY   70  36  28 NW10      30.12S
BROOKINGS      PTSUNNY   73  36  25 NW17G24   30.12F
WATERTOWN      SUNNY     73  39  29 N13       30.12F
HURON          MOSUNNY   76  33  21 NW8       30.12F
SISSETON         N/A     73  28  18 N15       30.10F
ABERDEEN       SUNNY     75  37  25 N9        30.11F
MITCHELL       SUNNY     75  35  23 W10       30.15F
PIERRE         SUNNY     70  33  25 VRB3      30.15F
MOBRIDGE       SUNNY     76  28  17 CALM      30.12F
RAPID CITY     SUNNY     63  34  33 SE16      30.16F
$$

  *****  SOME WEATHER IN NEARBY STATES *****

CITY           SKY/WX    TMP DP  RH WIND       PRES   REMARKS
GLASGOW MT     SUNNY     72  30  21 S22G29    30.09F
GREAT FALLS MT SUNNY     69  37  30 E6        29.96F
CHEYENNE WY    CLOUDY    50  40  68 S12       30.16F
SCOTTSBLUFF NE CLOUDY    56  42  59 S14       30.17F
OMAHA NE       MOSUNNY   73  39  29 W7        30.16F
DES MOINES IA  MOSUNNY   76  35  22 NW15G24   30.09F
DAVENPORT IA   SUNNY     72  37  28 W15       30.06F
CHICAGO IL     MOSUNNY   68  34  28 NW10G21   30.03S
EAU CLAIRE WI  MOSUNNY   72  38  29 NW17      29.97S
LA CROSSE WI   SUNNY     75  38  26 NW20      29.96S
$$

  *****  SOME NATIONAL WEATHER *****

CITY           SKY/WX    TMP DP  RH WIND       PRES   REMARKS
LA GUARDIA NY  CLOUDY    58  42  55 S12       29.92S
RALEIGH NC     PTSUNNY   65  58  78 N8G20     29.86R
ATLANTA GA     MOSUNNY   75  58  55 NW15G25   29.98S
NEW ORLEANS LA TSTM      70  66  87 W25       30.05  VSB 3/4
OKLAHOMA CITY  PTSUNNY   67  48  50 NE8       30.19F
ALBUQUERQUE NM CLOUDY    59  43  55 E32G43    30.03F
SALT LAKE CITY CLOUDY    64  43  46 W13       29.90R
LOS ANGELES CA MOSUNNY   64  52  64 W16       29.97S
BOISE ID       PTSUNNY   70  47  43 VRB3      29.83F
SEATTLE WA     PTSUNNY   75  55  49 VRB7      29.84F
$$

*** WEATHER ACROSS MANITOBA...SASKATCHEWAN AND ONTARIO ***
                ***ONTARIO***

CITY           SKY/WX    TMP DP  RH WIND       PRES   REMARKS
GERALDTON      MOSUNNY   48  14  25 N13G24    30.01R
THUNDER BAY    MOSUNNY   63  14  15 N15G23    29.99R
SIOUX LOOKOUT  MOSUNNY   55  19  24 N9G18     30.07S
TORONTO        PTSUNNY   68  30  24 W18       29.83S
BIG TROUT LK   PTSUNNY   39  21  48 N6        30.16F
PICKLE LAKE    MOSUNNY   48  10  21 N7        30.08S
DRYDEN         SUNNY     59  25  27 NW12      30.08S
KENORA         MOSUNNY   61  25  25 NW13      30.10F
$$
                *** MANITOBA***

CITY           SKY/WX    TMP DP  RH WIND       PRES   REMARKS
BRANDON        MOSUNNY   72  39  30 SW12      30.12F
DAUPHIN        SUNNY     75  34  22 SE12      30.08F
ISLAND LAKE    MOSUNNY   55  10  16 VRB2      30.15F
PILOT MOUND      N/A     68  30  24 N12G18      N/A
THE PAS        MOSUNNY   73  37  27 SE15      30.03F
THOMPSON       MOSUNNY   63  25  23 SW8       30.11F
WINNIPEG       MOSUNNY   64  36  34 VRB2      30.13F
LYNN LAKE      SUNNY     68  30  24 SE10      30.03F
CHURCHILL      MOSUNNY   43  16  33 E5        30.18F
GILLAM         SUNNY     52  21  30 NW6       30.16F
$$
                ***SASKATCHEWAN***

CITY           SKY/WX    TMP DP  RH WIND       PRES   REMARKS
ESTEVAN        PTSUNNY   75  27  16 VRB2      30.12F
KINDERSLEY     SUNNY     75  23  14 S17G29    30.05F
LLOYDMINSTER   SUNNY     75  23  14 S14G25    30.04F
PRINCE ALBERT  MOSUNNY   79  30  17 SW17      30.05F
REGINA         MOSUNNY   73  28  19 S7        30.11F
YORKTON        MOSUNNY   75  28  17 W7        30.08F



USA.gov is the U.S. government's official web portal to all federal, state and local government web resources and services.